Regional Weather Roundup
Issued by NWS

Home | Current Version | Previous Version | Text Only | Print | Product List | Glossary On
Versions: 1 2 3 4 5 6 7 8 9 10 11 12 13 14 15 16 17 18 19 20 21 22 23 24 25 26 27 28 29 30 31 32 33 34 35 36 37 38 39 40 41 42 43 44 45 46 47 48 49 50
000
ASUS43 KMPX 152310
RWRMN
WEATHER ROUNDUP FOR MINNESOTA
NATIONAL WEATHER SERVICE TWIN CITIES/CHANHASSEN MN
500 PM CST SUN JAN 15 2017


NOTE: "FAIR" INDICATES FEW OR NO CLOUDS BELOW 12,000 FEET WITH NO
SIGNIFICANT WEATHER AND/OR OBSTRUCTIONS TO VISIBILITY. N/A MEANS
CURRENT SKY AND/OR WEATHER CONDITIONS ARE NOT AVAILABLE.

MNZ060>063-068>070-160000-
   Twin Cities Metro

CITY           SKY/WX    TMP DP  RH WIND       PRES   REMARKS
TWIN CITIES    CLOUDY    32  19  58 S5        30.22S WCI  27
ST PAUL        CLOUDY    26  19  74 S8        30.24S WCI  18
CRYSTAL        CLOUDY    30  17  58 S6        30.20F WCI  24
BLAINE         PTCLDY    28  18  64 SE5       30.21S WCI  23
LAKEVILLE      CLEAR     27  21  80 S3        30.23R
EDEN PRAIRIE   CLOUDY    29  19  66 S6        30.20F WCI  23
SOUTH ST PAUL  CLOUDY    29  19  68 S5        30.23S WCI  23
LAKE ELMO      FAIR      28  19  69 SE3       30.23S
$$
MNZ001>005-007-008-013>017-022>024-027-028-160000-
   Northwest Minnesota

CITY           SKY/WX    TMP DP  RH WIND       PRES   REMARKS
BEMIDJI        CLEAR     29  17  61 SW7       30.04S WCI  21
HALLOCK        CLOUDY    12   9  85 S16       29.98R WCI  -4
ROSEAU         CLOUDY    18  10  73 SW9       29.98R WCI   6
WARROAD        CLOUDY    19  10  68 SW10      29.97S WCI   8
THIEF RVR FALL CLOUDY    16   9  74 S15       30.03R WCI   1
CROOKSTON      CLOUDY    16  10  79 S14       30.06S WCI   1
FOSSTON        CLOUDY    18  12  79 S18       30.05S WCI   2
DETROIT LAKES  CLOUDY    23  18  80 SW8       30.09F WCI  14
MOORHEAD       CLOUDY    16  10  79 S10       30.10F WCI   3
PARK RAPIDS    CLOUDY    20  11  68 S10       30.08S WCI   9
MAHNOMEN       FAIR      18  13  82 S13       30.08R WCI   4
$$
MNZ006-009>011-018-025>026-160000-
   North Central Minnesota

CITY           SKY/WX    TMP DP  RH WIND       PRES   REMARKS
BAUDETTE       CLEAR     25   9  50 SW5       29.96R WCI  19
FLAG ISLAND    CLOUDY    19   9  63 S8        29.95R WCI   9
INTL FALLS     CLEAR     30  13  49 SW8       29.98R WCI  22
WASKISH        CLOUDY    30  18  59 SW6       29.99F WCI  24
BIG FORK       CLEAR     27  16  63 S8        30.04S WCI  18
LONGVILLE      CLEAR     28  16  59 S7        30.08S WCI  21
GRAND RAPIDS   CLEAR     28  14  55 S8        30.08F WCI  20
CRANE LAKE     CLEAR    N/A N/A N/A S5        30.02S
ORR            CLEAR     28  12  50 S5        29.99F WCI  23
COOK           CLEAR     28  14  54 S7        30.04S WCI  21
WALKER         FAIR      27  17  65 SW7       30.07S WCI  19
$$
MNZ012-019>021-037-160000-
   Northeast Minnesota

CITY           SKY/WX    TMP DP  RH WIND       PRES   REMARKS
DULUTH         CLEAR     26  10  50 SW10      30.09F WCI  16
ELY            CLEAR     28  12  50 SW9       30.02S WCI  20
HIBBING        CLEAR     27  10  49 S7        30.06F WCI  19
EVELETH        CLEAR     30   8  38 SW8       30.07S WCI  22
DULUTH HARBOR  CLEAR     28  12  50 CALM      30.15S
TWO HARBORS    CLEAR     28  14  54 SW6       30.08F WCI  22
SILVER BAY     CLEAR     25  14  63 SW5       30.07F WCI  19
GRAND MARAIS     N/A     34  27  75 SW26      30.07S WCI  21
G MARAIS ARPRT CLEAR     25  18  74 S7        30.02R WCI  17
$$
MNZ029>031-032-039>041-046>048-054>057-064-160000-
   West Central Minnesota

CITY           SKY/WX    TMP DP  RH WIND       PRES   REMARKS
FERGUS FALLS   CLOUDY    18  14  86 SE8       30.17R WCI   7
WHEATON        CLOUDY    21  18  86 SE8       30.16R WCI  12
MORRIS         CLOUDY    19  16  86 SE8       30.14R WCI   9
ALEXANDRIA     CLOUDY    22  16  78 S6        30.14R WCI  14
ELBOW LAKE     FAIR      19  15  86 E6        30.13S FOG     WCI  11
WADENA         CLOUDY    21  16  79 SW7       30.11R WCI  13
GLENWOOD       CLOUDY    19  16  86 S7        30.15R WCI  10
APPLETON       CLOUDY    28  19  69 S6        30.15R WCI  22
ORTONVILLE     CLOUDY    23  18  80 CALM      30.14R
MADISON        CLOUDY    27  19  74 S12       30.15R WCI  16
WILLMAR        FAIR      21  18  86 CALM      30.18S
$$
MNZ033>034-036-042>043-049>051-058-059-160000-
   Central Minnesota

CITY           SKY/WX    TMP DP  RH WIND       PRES   REMARKS
ST CLOUD       CLOUDY    24  16  71 S5        30.17F WCI  18
SAUK CENTRE    FAIR      22  16  79 SE7       30.16R WCI  13
PAYNESVILLE    CLOUDY    25  19  78 S8        30.17S WCI  16
AITKIN         CLEAR     28  10  47 S8        30.11S WCI  20
PINE RIVER     CLEAR     28  18  64 S5        30.13S WCI  23
BRAINERD       CLEAR     20  12  71 S7        30.12S WCI  11
STAPLES        CLOUDY    25  16  68 S7        30.12S WCI  17
LONG PRAIRIE   FAIR      23  18  80 SE8       30.14S WCI  14
LITTLE FALLS   CLOUDY    23  16  74 S3        30.16S
LITCHFIELD     CLOUDY    27  21  80 CALM      30.19S
BUFFALO        CLOUDY    25  19  75 CALM      30.21S
MAPLE LAKE     CLOUDY    26  20  79 S3        30.19F
HUTCHINSON     CLOUDY    27  22  84 CALM      30.20S
$$
MNZ037-044-045-052-053-160000-
   East Central Minnesota

CITY           SKY/WX    TMP DP  RH WIND       PRES   REMARKS
PRINCETON      CLOUDY    28  18  64 S6        30.19S WCI  22
MORA           CLOUDY    27  18  69 CALM      30.19S
CAMBRIDGE      CLEAR     30  18  59 S3        30.18S
RUSH CITY      CLOUDY    25  16  68 S6        30.19F WCI  18
MOOSE LAKE     CLEAR     25  12  58 S8        30.13S WCI  16
HINCKLEY       FAIR      25  16  68 S3        30.18S
CLOQUET        CLEAR     25   9  50 S8        30.11S WCI  16
MCGREGOR       CLEAR     28  16  59 S8        30.12S WCI  20
$$
MNZ071>073-080-081-089-090-097-098-160000-
   Southwest Minnesota

CITY           SKY/WX    TMP DP  RH WIND       PRES   REMARKS
MONTEVIDEO     CLOUDY    28  19  69 S5        30.18S WCI  23
GRANITE FALLS  CLOUDY    26  21  82 SE8       30.18S WCI  17
CANBY          CLOUDY    32  22  67 CALM      30.15S
MARSHALL       CLOUDY    30  22  72 S9        30.17R WCI  22
REDWOOD FALLS  CLOUDY    29  21  72 S8        30.18S WCI  21
OLIVIA         CLOUDY    28  21  74 S5        30.18R WCI  23
PIPESTONE      CLOUDY    28  23  80 S6        30.13F WCI  22
WINDOM         CLEAR     32  23  69 S5        30.17S WCI  27
JACKSON        CLEAR     30  21  69 S6        30.18S WCI  24
TRACY          CLEAR     31  23  73 CALM      30.16S
SLAYTON        CLEAR     32  25  74 S5        30.16R WCI  27
$$
MNZ065>067-074>077-082>085-091>093-160000-
   South Central Minnesota

CITY           SKY/WX    TMP DP  RH WIND       PRES   REMARKS
MANKATO        CLEAR     30  22  72 S7        30.22R WCI  23
NEW ULM        CLEAR     30  21  69 S7        30.20R WCI  23
ST JAMES       CLEAR     32  25  74 CALM      30.21S
FAIRMONT       CLEAR     29  23  78 S7        30.21R WCI  22
GLENCOE        CLOUDY    29  25  84 S3        30.19S
FARIBAULT        N/A     28  21  74 S6        30.22F WCI  22
OWATONNA       CLOUDY    27  19  74 SE6       30.22S WCI  20
WASECA         CLOUDY    28  21  74 S7        30.23S WCI  21
ALBERT LEA     CLOUDY    27  18  69 SE5       30.22S WCI  21
$$
MNZ078>079-086>088-094>096-160000-
   Southeast Minnesota

CITY           SKY/WX    TMP DP  RH WIND       PRES   REMARKS
ROCHESTER      CLOUDY    22  16  78 SE3       30.23S
RED WING       CLOUDY    25  16  68 SE6       30.25R WCI  18
STANTON        CLEAR     28  21  74 S6        30.22S WCI  22
DODGE CENTER   CLOUDY    21  18  86 CALM      30.23R
WINONA         CLOUDY    23  14  68 CALM      30.29S
AUSTIN         CLOUDY    21  18  86 SE3       30.23S
PRESTON        CLOUDY    21  16  79 S7        30.24F WCI  13
$$
ABBREVIATIONS USED IN REMARKS
   TC - TEMPERATURES IN CELSIUS
  WCI - WIND CHILL INDEX
   HX - HEAT INDEX
  VSB - VISIBILITY
$$



USA.gov is the U.S. government's official web portal to all federal, state and local government web resources and services.